Location: MAS Eagle Lake Observatory
(44.8103°N, 93.9397°W)
Time: 10:15:20
(UTC-06:00)

Envisat - Visible Passes

Search period start: 23 February 2018 00:00
Search period end: 05 March 2018 00:00
Orbit: 764 x 766 km, 98.2° (Epoch: 22 February)

Date Brightness Start Highest point End Pass type
(mag) Time Alt. Az. Time Alt. Az. Time Alt. Az.
23 Feb 4.3 18:23:40 10° ESE 18:27:16 20° ENE 18:30:54 10° NNE visible
23 Feb 3.5 20:00:51 10° S 20:05:51 59° W 20:10:54 10° NNW visible
24 Feb 2.9 19:24:07 10° SSE 19:29:08 66° ENE 19:34:10 10° N visible
24 Feb 5.6 21:05:30 10° SW 21:08:37 16° W 21:11:46 10° NW visible
25 Feb 3.7 18:48:09 10° SE 18:52:36 32° ENE 18:57:04 10° N visible
25 Feb 4.5 20:26:58 10° SSW 20:31:33 34° W 20:36:11 10° NNW visible
26 Feb 3.1 19:49:38 10° S 19:54:42 74° WSW 19:59:48 10° NNW visible
27 Feb 3.1 19:13:06 10° SSE 19:18:01 53° ENE 19:22:59 10° N visible
27 Feb 5.4 20:53:38 10° SW 20:57:21 20° W 21:01:06 10° NW visible
28 Feb 4.0 18:37:24 10° ESE 18:41:34 26° ENE 18:45:44 10° N visible
28 Feb 4.1 20:15:33 10° S 20:20:21 43° W 20:25:12 10° NNW visible
01 Mar 2.9 19:38:28 10° SSE 19:43:34 89° ENE 19:48:40 10° NNW visible
01 Mar 5.9 21:21:34 10° WSW 21:23:16 12° W 21:24:59 10° WNW visible
02 Mar 3.4 19:02:11 10° SE 19:06:57 42° ENE 19:11:44 10° N visible
02 Mar 5.0 20:41:57 10° SSW 20:46:07 25° W 20:50:18 10° NW visible
03 Mar 3.7 20:04:13 10° S 20:09:10 54° W 20:14:11 10° NNW visible
04 Mar 2.9 19:27:23 10° SSE 19:32:26 72° ENE 19:37:31 10° N visible
04 Mar 5.8 21:09:10 10° WSW 21:11:59 15° W 21:14:49 10° NW visible
